Weather in Svetloye

Russia / Chelyabinsk Oblast     53°41′36″N   60°22′11″E
temp.,
°C
wind,
m/s
gust,
m/s
humid.,
%
clouds,
%
prec.,
mm/h
press.,
hPa
HPBL,
m
15 may, sat
sat1523:00+20wsw45350 0.0 102459
02:00+18w33505 0.0 102428
05:00+16nnw34550 0.0 102446
08:00+22nnw23445 0.0 1025231
11:00+26w33307 0.0 10241459
14:00+29wnw34235 0.0 10232541
17:00+29wnw34228 0.0 10223167
20:00+20nw5955100 0.1 1023269
16 may, sun
sun1623:00+18w510615 1.9 1023176
02:00+17wnw46611 0.0 102280
05:00+17nw33563 0.0 102317
08:00+22w22455 0.0 1023172
11:00+27sw33327 0.0 10231024
14:00+29wsw33241 0.0 10222579
17:00+29wsw34225 0.0 10213118
20:00+26sw22310 0.0 102014
17 may, mon
mon1723:00+21w12454 0.0 102013
02:00+20nne224830 0.0 102131
05:00+18wnw22505 0.0 102211
08:00+23w34410 0.0 1022254
11:00+28w34280 0.0 10211304
14:00+29wsw352127 0.0 10203591
17:00+22nw81043100 0.4 1021381
20:00+22nnw35485 0.1 1020146
18 may, tue
tue1823:00+18sw466156 0.4 102185
02:00+18w356324 0.1 101968
05:00+17wnw3565100 0.1 101962
08:00+22nw364617 0.0 1018257
11:00+27wnw56301 0.0 10172634
14:00+29nw672590 0.0 10163148
17:00+28nnw782898 0.0 10152866
20:00+23n4940100 0.0 1016244
19 may, wed
wed1923:00+18n412485 0.0 1017283
02:00+15ne512593 0.0 1019390
05:00+13nne511750 0.0 1021379
08:00+14ne79670 0.0 1023715
11:00+16ne78540 0.0 10241031
14:00+20ene67390 0.0 10231427
17:00+20ene56345 0.0 10231556
20:00+17ene3643100 0.0 1024150